Index of /20260504/WXO-DD/model_rdps/10km/12/074
Name Last modified Size Description
Parent Directory -
20260504T12Z_MSC_RDPS_AbsoluteVorticity_IsbL-0250_RLatLon0.09_PT074H.grib2 2026-05-04 15:09 593K
20260504T12Z_MSC_RDPS_AbsoluteVorticity_IsbL-0500_RLatLon0.09_PT074H.grib2 2026-05-04 15:09 535K
20260504T12Z_MSC_RDPS_AbsoluteVorticity_IsbL-0700_RLatLon0.09_PT074H.grib2 2026-05-04 15:09 604K
20260504T12Z_MSC_RDPS_AbsoluteVorticity_IsbL-0850_RLatLon0.09_PT074H.grib2 2026-05-04 15:09 784K
20260504T12Z_MSC_RDPS_AirTemp_AGL-120m_RLatLon0.09_PT074H.grib2 2026-05-04 15:09 386K
20260504T12Z_MSC_RDPS_AirTemp_AGL-2m_RLatLon0.09_PT074H.grib2 2026-05-04 15:09 630K
20260504T12Z_MSC_RDPS_AirTemp_AGL-40m_RLatLon0.09_PT074H.grib2 2026-05-04 15:09 400K
20260504T12Z_MSC_RDPS_AirTemp_AGL-80m_RLatLon0.09_PT074H.grib2 2026-05-04 15:09 394K
20260504T12Z_MSC_RDPS_AirTemp_IsbL-0001_RLatLon0.09_PT074H.grib2 2026-05-04 15:09 244K
20260504T12Z_MSC_RDPS_AirTemp_IsbL-0005_RLatLon0.09_PT074H.grib2 2026-05-04 15:09 290K
20260504T12Z_MSC_RDPS_AirTemp_IsbL-0010_RLatLon0.09_PT074H.grib2 2026-05-04 15:09 394K
20260504T12Z_MSC_RDPS_AirTemp_IsbL-0020_RLatLon0.09_PT074H.grib2 2026-05-04 15:09 324K
20260504T12Z_MSC_RDPS_AirTemp_IsbL-0030_RLatLon0.09_PT074H.grib2 2026-05-04 15:09 340K
20260504T12Z_MSC_RDPS_AirTemp_IsbL-0050_RLatLon0.09_PT074H.grib2 2026-05-04 15:09 311K
20260504T12Z_MSC_RDPS_AirTemp_IsbL-0100_RLatLon0.09_PT074H.grib2 2026-05-04 15:09 419K
20260504T12Z_MSC_RDPS_AirTemp_IsbL-0150_RLatLon0.09_PT074H.grib2 2026-05-04 15:09 407K
20260504T12Z_MSC_RDPS_AirTemp_IsbL-0175_RLatLon0.09_PT074H.grib2 2026-05-04 15:09 401K
20260504T12Z_MSC_RDPS_AirTemp_IsbL-0200_RLatLon0.09_PT074H.grib2 2026-05-04 15:09 409K
20260504T12Z_MSC_RDPS_AirTemp_IsbL-0225_RLatLon0.09_PT074H.grib2 2026-05-04 15:09 411K
20260504T12Z_MSC_RDPS_AirTemp_IsbL-0250_RLatLon0.09_PT074H.grib2 2026-05-04 15:09 417K
20260504T12Z_MSC_RDPS_AirTemp_IsbL-0275_RLatLon0.09_PT074H.grib2 2026-05-04 15:09 398K
20260504T12Z_MSC_RDPS_AirTemp_IsbL-0300_RLatLon0.09_PT074H.grib2 2026-05-04 15:09 405K
20260504T12Z_MSC_RDPS_AirTemp_IsbL-0350_RLatLon0.09_PT074H.grib2 2026-05-04 15:09 418K
20260504T12Z_MSC_RDPS_AirTemp_IsbL-0400_RLatLon0.09_PT074H.grib2 2026-05-04 15:09 419K
20260504T12Z_MSC_RDPS_AirTemp_IsbL-0450_RLatLon0.09_PT074H.grib2 2026-05-04 15:09 426K
20260504T12Z_MSC_RDPS_AirTemp_IsbL-0500_RLatLon0.09_PT074H.grib2 2026-05-04 15:09 436K
20260504T12Z_MSC_RDPS_AirTemp_IsbL-0550_RLatLon0.09_PT074H.grib2 2026-05-04 15:09 417K
20260504T12Z_MSC_RDPS_AirTemp_IsbL-0600_RLatLon0.09_PT074H.grib2 2026-05-04 15:09 434K
20260504T12Z_MSC_RDPS_AirTemp_IsbL-0650_RLatLon0.09_PT074H.grib2 2026-05-04 15:09 447K
20260504T12Z_MSC_RDPS_AirTemp_IsbL-0700_RLatLon0.09_PT074H.grib2 2026-05-04 15:09 472K
20260504T12Z_MSC_RDPS_AirTemp_IsbL-0750_RLatLon0.09_PT074H.grib2 2026-05-04 15:09 513K
20260504T12Z_MSC_RDPS_AirTemp_IsbL-0800_RLatLon0.09_PT074H.grib2 2026-05-04 15:09 569K
20260504T12Z_MSC_RDPS_AirTemp_IsbL-0850_RLatLon0.09_PT074H.grib2 2026-05-04 15:09 633K
20260504T12Z_MSC_RDPS_AirTemp_IsbL-0875_RLatLon0.09_PT074H.grib2 2026-05-04 15:09 527K
20260504T12Z_MSC_RDPS_AirTemp_IsbL-0900_RLatLon0.09_PT074H.grib2 2026-05-04 15:09 538K
20260504T12Z_MSC_RDPS_AirTemp_IsbL-0925_RLatLon0.09_PT074H.grib2 2026-05-04 15:09 674K
20260504T12Z_MSC_RDPS_AirTemp_IsbL-0950_RLatLon0.09_PT074H.grib2 2026-05-04 15:09 537K
20260504T12Z_MSC_RDPS_AirTemp_IsbL-0970_RLatLon0.09_PT074H.grib2 2026-05-04 15:09 534K
20260504T12Z_MSC_RDPS_AirTemp_IsbL-0985_RLatLon0.09_PT074H.grib2 2026-05-04 15:09 522K
20260504T12Z_MSC_RDPS_AirTemp_IsbL-1000_RLatLon0.09_PT074H.grib2 2026-05-04 15:09 505K
20260504T12Z_MSC_RDPS_AirTemp_IsbL-1015_RLatLon0.09_PT074H.grib2 2026-05-04 15:09 503K
20260504T12Z_MSC_RDPS_Albedo_Sfc_RLatLon0.09_PT074H.grib2 2026-05-04 15:09 158K
20260504T12Z_MSC_RDPS_CAPE_Sfc_RLatLon0.09_PT074H.grib2 2026-05-04 15:09 1.8M
20260504T12Z_MSC_RDPS_CIN_Sfc_RLatLon0.09_PT074H.grib2 2026-05-04 15:09 1.1M
20260504T12Z_MSC_RDPS_CloudWater_EAtm_RLatLon0.09_PT074H.grib2 2026-05-04 15:09 224K
20260504T12Z_MSC_RDPS_ConvectivePrecip-Accum_Sfc_RLatLon0.09_PT074H.grib2 2026-05-04 15:09 1.2M
20260504T12Z_MSC_RDPS_DewPointDepression_AGL-2m_RLatLon0.09_PT074H.grib2 2026-05-04 15:09 418K
20260504T12Z_MSC_RDPS_DewPointDepression_IsbL-0001_RLatLon0.09_PT074H.grib2 2026-05-04 15:09 193
20260504T12Z_MSC_RDPS_DewPointDepression_IsbL-0005_RLatLon0.09_PT074H.grib2 2026-05-04 15:09 193
20260504T12Z_MSC_RDPS_DewPointDepression_IsbL-0010_RLatLon0.09_PT074H.grib2 2026-05-04 15:09 193
20260504T12Z_MSC_RDPS_DewPointDepression_IsbL-0020_RLatLon0.09_PT074H.grib2 2026-05-04 15:09 193
20260504T12Z_MSC_RDPS_DewPointDepression_IsbL-0030_RLatLon0.09_PT074H.grib2 2026-05-04 15:09 193
20260504T12Z_MSC_RDPS_DewPointDepression_IsbL-0050_RLatLon0.09_PT074H.grib2 2026-05-04 15:09 110K
20260504T12Z_MSC_RDPS_DewPointDepression_IsbL-0100_RLatLon0.09_PT074H.grib2 2026-05-04 15:09 112K
20260504T12Z_MSC_RDPS_DewPointDepression_IsbL-0150_RLatLon0.09_PT074H.grib2 2026-05-04 15:09 133K
20260504T12Z_MSC_RDPS_DewPointDepression_IsbL-0175_RLatLon0.09_PT074H.grib2 2026-05-04 15:09 175K
20260504T12Z_MSC_RDPS_DewPointDepression_IsbL-0200_RLatLon0.09_PT074H.grib2 2026-05-04 15:09 218K
20260504T12Z_MSC_RDPS_DewPointDepression_IsbL-0225_RLatLon0.09_PT074H.grib2 2026-05-04 15:09 250K
20260504T12Z_MSC_RDPS_DewPointDepression_IsbL-0250_RLatLon0.09_PT074H.grib2 2026-05-04 15:09 297K
20260504T12Z_MSC_RDPS_DewPointDepression_IsbL-0275_RLatLon0.09_PT074H.grib2 2026-05-04 15:09 306K
20260504T12Z_MSC_RDPS_DewPointDepression_IsbL-0300_RLatLon0.09_PT074H.grib2 2026-05-04 15:09 323K
20260504T12Z_MSC_RDPS_DewPointDepression_IsbL-0350_RLatLon0.09_PT074H.grib2 2026-05-04 15:09 327K
20260504T12Z_MSC_RDPS_DewPointDepression_IsbL-0400_RLatLon0.09_PT074H.grib2 2026-05-04 15:09 337K
20260504T12Z_MSC_RDPS_DewPointDepression_IsbL-0450_RLatLon0.09_PT074H.grib2 2026-05-04 15:09 344K
20260504T12Z_MSC_RDPS_DewPointDepression_IsbL-0500_RLatLon0.09_PT074H.grib2 2026-05-04 15:09 347K
20260504T12Z_MSC_RDPS_DewPointDepression_IsbL-0550_RLatLon0.09_PT074H.grib2 2026-05-04 15:09 356K
20260504T12Z_MSC_RDPS_DewPointDepression_IsbL-0600_RLatLon0.09_PT074H.grib2 2026-05-04 15:09 363K
20260504T12Z_MSC_RDPS_DewPointDepression_IsbL-0650_RLatLon0.09_PT074H.grib2 2026-05-04 15:09 364K
20260504T12Z_MSC_RDPS_DewPointDepression_IsbL-0700_RLatLon0.09_PT074H.grib2 2026-05-04 15:09 373K
20260504T12Z_MSC_RDPS_DewPointDepression_IsbL-0750_RLatLon0.09_PT074H.grib2 2026-05-04 15:09 398K
20260504T12Z_MSC_RDPS_DewPointDepression_IsbL-0800_RLatLon0.09_PT074H.grib2 2026-05-04 15:09 442K
20260504T12Z_MSC_RDPS_DewPointDepression_IsbL-0850_RLatLon0.09_PT074H.grib2 2026-05-04 15:09 483K
20260504T12Z_MSC_RDPS_DewPointDepression_IsbL-0875_RLatLon0.09_PT074H.grib2 2026-05-04 15:09 483K
20260504T12Z_MSC_RDPS_DewPointDepression_IsbL-0900_RLatLon0.09_PT074H.grib2 2026-05-04 15:09 475K
20260504T12Z_MSC_RDPS_DewPointDepression_IsbL-0925_RLatLon0.09_PT074H.grib2 2026-05-04 15:09 462K
20260504T12Z_MSC_RDPS_DewPointDepression_IsbL-0950_RLatLon0.09_PT074H.grib2 2026-05-04 15:09 452K
20260504T12Z_MSC_RDPS_DewPointDepression_IsbL-0970_RLatLon0.09_PT074H.grib2 2026-05-04 15:09 447K
20260504T12Z_MSC_RDPS_DewPointDepression_IsbL-0985_RLatLon0.09_PT074H.grib2 2026-05-04 15:09 446K
20260504T12Z_MSC_RDPS_DewPointDepression_IsbL-1000_RLatLon0.09_PT074H.grib2 2026-05-04 15:09 443K
20260504T12Z_MSC_RDPS_DewPointDepression_IsbL-1015_RLatLon0.09_PT074H.grib2 2026-05-04 15:09 433K
20260504T12Z_MSC_RDPS_DewPoint_AGL-2m_RLatLon0.09_PT074H.grib2 2026-05-04 15:09 407K
20260504T12Z_MSC_RDPS_DownwardLongwaveRadiationFlux-Accum_Sfc_RLatLon0.09_PT074H.grib2 2026-05-04 15:09 432K
20260504T12Z_MSC_RDPS_DownwardShortwaveRadiationFlux-Accum_NTAtm_RLatLon0.09_PT074H.grib2 2026-05-04 15:09 138K
20260504T12Z_MSC_RDPS_DownwardShortwaveRadiationFlux-Accum_Sfc_RLatLon0.09_PT074H.grib2 2026-05-04 15:09 638K
20260504T12Z_MSC_RDPS_FreezingRain-Accum1h_Sfc_RLatLon0.09_PT074H.grib2 2026-05-04 15:09 46K
20260504T12Z_MSC_RDPS_FreezingRain-Accum_Sfc_RLatLon0.09_PT074H.grib2 2026-05-04 15:09 216K
20260504T12Z_MSC_RDPS_GeopotentialHeight_IsbL-0001_RLatLon0.09_PT074H.grib2 2026-05-04 15:09 246K
20260504T12Z_MSC_RDPS_GeopotentialHeight_IsbL-0005_RLatLon0.09_PT074H.grib2 2026-05-04 15:09 341K
20260504T12Z_MSC_RDPS_GeopotentialHeight_IsbL-0010_RLatLon0.09_PT074H.grib2 2026-05-04 15:09 309K
20260504T12Z_MSC_RDPS_GeopotentialHeight_IsbL-0020_RLatLon0.09_PT074H.grib2 2026-05-04 15:09 308K
20260504T12Z_MSC_RDPS_GeopotentialHeight_IsbL-0030_RLatLon0.09_PT074H.grib2 2026-05-04 15:09 312K
20260504T12Z_MSC_RDPS_GeopotentialHeight_IsbL-0050_RLatLon0.09_PT074H.grib2 2026-05-04 15:09 311K
20260504T12Z_MSC_RDPS_GeopotentialHeight_IsbL-0100_RLatLon0.09_PT074H.grib2 2026-05-04 15:09 285K
20260504T12Z_MSC_RDPS_GeopotentialHeight_IsbL-0150_RLatLon0.09_PT074H.grib2 2026-05-04 15:09 227K
20260504T12Z_MSC_RDPS_GeopotentialHeight_IsbL-0175_RLatLon0.09_PT074H.grib2 2026-05-04 15:09 230K
20260504T12Z_MSC_RDPS_GeopotentialHeight_IsbL-0200_RLatLon0.09_PT074H.grib2 2026-05-04 15:09 233K
20260504T12Z_MSC_RDPS_GeopotentialHeight_IsbL-0225_RLatLon0.09_PT074H.grib2 2026-05-04 15:09 236K
20260504T12Z_MSC_RDPS_GeopotentialHeight_IsbL-0250_RLatLon0.09_PT074H.grib2 2026-05-04 15:09 237K
20260504T12Z_MSC_RDPS_GeopotentialHeight_IsbL-0275_RLatLon0.09_PT074H.grib2 2026-05-04 15:09 236K
20260504T12Z_MSC_RDPS_GeopotentialHeight_IsbL-0300_RLatLon0.09_PT074H.grib2 2026-05-04 15:09 236K
20260504T12Z_MSC_RDPS_GeopotentialHeight_IsbL-0350_RLatLon0.09_PT074H.grib2 2026-05-04 15:09 232K
20260504T12Z_MSC_RDPS_GeopotentialHeight_IsbL-0400_RLatLon0.09_PT074H.grib2 2026-05-04 15:09 228K
20260504T12Z_MSC_RDPS_GeopotentialHeight_IsbL-0450_RLatLon0.09_PT074H.grib2 2026-05-04 15:09 296K
20260504T12Z_MSC_RDPS_GeopotentialHeight_IsbL-0500_RLatLon0.09_PT074H.grib2 2026-05-04 15:09 290K
20260504T12Z_MSC_RDPS_GeopotentialHeight_IsbL-0550_RLatLon0.09_PT074H.grib2 2026-05-04 15:09 286K
20260504T12Z_MSC_RDPS_GeopotentialHeight_IsbL-0600_RLatLon0.09_PT074H.grib2 2026-05-04 15:09 282K
20260504T12Z_MSC_RDPS_GeopotentialHeight_IsbL-0650_RLatLon0.09_PT074H.grib2 2026-05-04 15:09 252K
20260504T12Z_MSC_RDPS_GeopotentialHeight_IsbL-0700_RLatLon0.09_PT074H.grib2 2026-05-04 15:09 331K
20260504T12Z_MSC_RDPS_GeopotentialHeight_IsbL-0750_RLatLon0.09_PT074H.grib2 2026-05-04 15:09 334K
20260504T12Z_MSC_RDPS_GeopotentialHeight_IsbL-0800_RLatLon0.09_PT074H.grib2 2026-05-04 15:09 375K
20260504T12Z_MSC_RDPS_GeopotentialHeight_IsbL-0850_RLatLon0.09_PT074H.grib2 2026-05-04 15:09 388K
20260504T12Z_MSC_RDPS_GeopotentialHeight_IsbL-0875_RLatLon0.09_PT074H.grib2 2026-05-04 15:09 391K
20260504T12Z_MSC_RDPS_GeopotentialHeight_IsbL-0900_RLatLon0.09_PT074H.grib2 2026-05-04 15:09 368K
20260504T12Z_MSC_RDPS_GeopotentialHeight_IsbL-0925_RLatLon0.09_PT074H.grib2 2026-05-04 15:09 372K
20260504T12Z_MSC_RDPS_GeopotentialHeight_IsbL-0950_RLatLon0.09_PT074H.grib2 2026-05-04 15:09 374K
20260504T12Z_MSC_RDPS_GeopotentialHeight_IsbL-0970_RLatLon0.09_PT074H.grib2 2026-05-04 15:09 380K
20260504T12Z_MSC_RDPS_GeopotentialHeight_IsbL-0985_RLatLon0.09_PT074H.grib2 2026-05-04 15:09 392K
20260504T12Z_MSC_RDPS_GeopotentialHeight_IsbL-1000_RLatLon0.09_PT074H.grib2 2026-05-04 15:09 407K
20260504T12Z_MSC_RDPS_GeopotentialHeight_IsbL-1015_RLatLon0.09_PT074H.grib2 2026-05-04 15:09 426K
20260504T12Z_MSC_RDPS_Humidex_Sfc_RLatLon0.09_PT074H.grib2 2026-05-04 15:09 2.4M
20260504T12Z_MSC_RDPS_IcePellets-Accum1h_Sfc_RLatLon0.09_PT074H.grib2 2026-05-04 15:09 4.0K
20260504T12Z_MSC_RDPS_IcePellets-Accum_Sfc_RLatLon0.09_PT074H.grib2 2026-05-04 15:09 40K
20260504T12Z_MSC_RDPS_KIndex_Sfc_RLatLon0.09_PT074H.grib2 2026-05-04 15:09 2.5M
20260504T12Z_MSC_RDPS_LatentHeatNetFlux_Sfc_RLatLon0.09_PT074H.grib2 2026-05-04 15:09 367K
20260504T12Z_MSC_RDPS_LiftedIndex-MU-VT_IsbL-0500_RLatLon0.09_PT074H.grib2 2026-05-04 15:09 2.4M
20260504T12Z_MSC_RDPS_NetLongwaveRadiationFlux-Accum_Sfc_RLatLon0.09_PT074H.grib2 2026-05-04 15:09 480K
20260504T12Z_MSC_RDPS_NetShortwaveRadiationFlux-Accum_Sfc_RLatLon0.09_PT074H.grib2 2026-05-04 15:09 635K
20260504T12Z_MSC_RDPS_PlanetaryBoundaryLayerHeight_Sfc_RLatLon0.09_PT074H.grib2 2026-05-04 15:09 1.2M
20260504T12Z_MSC_RDPS_Precip-Accum1h_Sfc_RLatLon0.09_PT074H.grib2 2026-05-04 15:09 1.3M
20260504T12Z_MSC_RDPS_Precip-Accum_Sfc_RLatLon0.09_PT074H.grib2 2026-05-04 15:09 2.2M
20260504T12Z_MSC_RDPS_PrecipRate_Sfc_RLatLon0.09_PT074H.grib2 2026-05-04 15:09 132K
20260504T12Z_MSC_RDPS_PrecipType-Instant_Sfc_RLatLon0.09_PT074H.grib2 2026-05-04 15:09 592K
20260504T12Z_MSC_RDPS_Pressure-Trend3h_Sfc_RLatLon0.09_PT074H.grib2 2026-05-04 15:09 1.2M
20260504T12Z_MSC_RDPS_Pressure_MSL_RLatLon0.09_PT074H.grib2 2026-05-04 15:09 390K
20260504T12Z_MSC_RDPS_Pressure_PVU-1.5_RLatLon0.09_PT074H.grib2 2026-05-04 15:09 2.3M
20260504T12Z_MSC_RDPS_Pressure_PVU-1_RLatLon0.09_PT074H.grib2 2026-05-04 15:09 2.4M
20260504T12Z_MSC_RDPS_Pressure_PVU-2_RLatLon0.09_PT074H.grib2 2026-05-04 15:09 2.4M
20260504T12Z_MSC_RDPS_Pressure_Sfc_RLatLon0.09_PT074H.grib2 2026-05-04 15:09 499K
20260504T12Z_MSC_RDPS_RadiativeTemp_Sfc_RLatLon0.09_PT074H.grib2 2026-05-04 15:09 313K
20260504T12Z_MSC_RDPS_Rain-Accum1h_Sfc_RLatLon0.09_PT074H.grib2 2026-05-04 15:09 646K
20260504T12Z_MSC_RDPS_Rain-Accum_Sfc_RLatLon0.09_PT074H.grib2 2026-05-04 15:09 1.9M
20260504T12Z_MSC_RDPS_RelativeHumidity_AGL-2m_RLatLon0.09_PT074H.grib2 2026-05-04 15:09 1.0M
20260504T12Z_MSC_RDPS_RelativeHumidity_IsbL-0010_RLatLon0.09_PT074H.grib2 2026-05-04 15:09 698K
20260504T12Z_MSC_RDPS_RelativeHumidity_IsbL-0020_RLatLon0.09_PT074H.grib2 2026-05-04 15:09 649K
20260504T12Z_MSC_RDPS_RelativeHumidity_IsbL-0030_RLatLon0.09_PT074H.grib2 2026-05-04 15:09 603K
20260504T12Z_MSC_RDPS_RelativeHumidity_IsbL-0050_RLatLon0.09_PT074H.grib2 2026-05-04 15:09 354K
20260504T12Z_MSC_RDPS_RelativeHumidity_IsbL-0100_RLatLon0.09_PT074H.grib2 2026-05-04 15:09 276K
20260504T12Z_MSC_RDPS_RelativeHumidity_IsbL-0150_RLatLon0.09_PT074H.grib2 2026-05-04 15:09 400K
20260504T12Z_MSC_RDPS_RelativeHumidity_IsbL-0175_RLatLon0.09_PT074H.grib2 2026-05-04 15:09 463K
20260504T12Z_MSC_RDPS_RelativeHumidity_IsbL-0200_RLatLon0.09_PT074H.grib2 2026-05-04 15:09 542K
20260504T12Z_MSC_RDPS_RelativeHumidity_IsbL-0225_RLatLon0.09_PT074H.grib2 2026-05-04 15:09 605K
20260504T12Z_MSC_RDPS_RelativeHumidity_IsbL-0250_RLatLon0.09_PT074H.grib2 2026-05-04 15:09 670K
20260504T12Z_MSC_RDPS_RelativeHumidity_IsbL-0275_RLatLon0.09_PT074H.grib2 2026-05-04 15:09 697K
20260504T12Z_MSC_RDPS_RelativeHumidity_IsbL-0300_RLatLon0.09_PT074H.grib2 2026-05-04 15:09 742K
20260504T12Z_MSC_RDPS_RelativeHumidity_IsbL-0350_RLatLon0.09_PT074H.grib2 2026-05-04 15:09 768K
20260504T12Z_MSC_RDPS_RelativeHumidity_IsbL-0400_RLatLon0.09_PT074H.grib2 2026-05-04 15:09 781K
20260504T12Z_MSC_RDPS_RelativeHumidity_IsbL-0450_RLatLon0.09_PT074H.grib2 2026-05-04 15:09 790K
20260504T12Z_MSC_RDPS_RelativeHumidity_IsbL-0500_RLatLon0.09_PT074H.grib2 2026-05-04 15:09 792K
20260504T12Z_MSC_RDPS_RelativeHumidity_IsbL-0550_RLatLon0.09_PT074H.grib2 2026-05-04 15:09 807K
20260504T12Z_MSC_RDPS_RelativeHumidity_IsbL-0600_RLatLon0.09_PT074H.grib2 2026-05-04 15:09 825K
20260504T12Z_MSC_RDPS_RelativeHumidity_IsbL-0650_RLatLon0.09_PT074H.grib2 2026-05-04 15:09 832K
20260504T12Z_MSC_RDPS_RelativeHumidity_IsbL-0700_RLatLon0.09_PT074H.grib2 2026-05-04 15:09 853K
20260504T12Z_MSC_RDPS_RelativeHumidity_IsbL-0750_RLatLon0.09_PT074H.grib2 2026-05-04 15:09 902K
20260504T12Z_MSC_RDPS_RelativeHumidity_IsbL-0800_RLatLon0.09_PT074H.grib2 2026-05-04 15:09 1.0M
20260504T12Z_MSC_RDPS_RelativeHumidity_IsbL-0850_RLatLon0.09_PT074H.grib2 2026-05-04 15:09 1.0M
20260504T12Z_MSC_RDPS_RelativeHumidity_IsbL-0875_RLatLon0.09_PT074H.grib2 2026-05-04 15:09 1.1M
20260504T12Z_MSC_RDPS_RelativeHumidity_IsbL-0900_RLatLon0.09_PT074H.grib2 2026-05-04 15:09 1.1M
20260504T12Z_MSC_RDPS_RelativeHumidity_IsbL-0925_RLatLon0.09_PT074H.grib2 2026-05-04 15:09 1.1M
20260504T12Z_MSC_RDPS_RelativeHumidity_IsbL-0950_RLatLon0.09_PT074H.grib2 2026-05-04 15:09 1.1M
20260504T12Z_MSC_RDPS_RelativeHumidity_IsbL-0970_RLatLon0.09_PT074H.grib2 2026-05-04 15:09 1.1M
20260504T12Z_MSC_RDPS_RelativeHumidity_IsbL-0985_RLatLon0.09_PT074H.grib2 2026-05-04 15:09 1.1M
20260504T12Z_MSC_RDPS_RelativeHumidity_IsbL-1000_RLatLon0.09_PT074H.grib2 2026-05-04 15:09 1.0M
20260504T12Z_MSC_RDPS_RelativeHumidity_IsbL-1015_RLatLon0.09_PT074H.grib2 2026-05-04 15:09 1.0M
20260504T12Z_MSC_RDPS_Runoff-Accum_Sfc_RLatLon0.09_PT074H.grib2 2026-05-04 15:09 69K
20260504T12Z_MSC_RDPS_SWEATIndex_Sfc_RLatLon0.09_PT074H.grib2 2026-05-04 15:09 2.4M
20260504T12Z_MSC_RDPS_SeeingIndex_EAtm_RLatLon0.09_PT074H.grib2 2026-05-04 15:09 1.0M
20260504T12Z_MSC_RDPS_SensibleHeatNetFlux_Sfc_RLatLon0.09_PT074H.grib2 2026-05-04 15:09 336K
20260504T12Z_MSC_RDPS_ShowalterIndex_IsbL-0500_RLatLon0.09_PT074H.grib2 2026-05-04 15:09 2.6M
20260504T12Z_MSC_RDPS_SkyTransparencyIndex_EAtm_RLatLon0.09_PT074H.grib2 2026-05-04 15:09 734K
20260504T12Z_MSC_RDPS_Snow-Accum1h_Sfc_RLatLon0.09_PT074H.grib2 2026-05-04 15:09 521K
20260504T12Z_MSC_RDPS_Snow-Accum_Sfc_RLatLon0.09_PT074H.grib2 2026-05-04 15:09 800K
20260504T12Z_MSC_RDPS_SnowDensity_Sfc_RLatLon0.09_PT074H.grib2 2026-05-04 15:09 178K
20260504T12Z_MSC_RDPS_SnowDepth_Sfc_RLatLon0.09_PT074H.grib2 2026-05-04 15:09 650K
20260504T12Z_MSC_RDPS_SoilTemp_DBS-0to10cm_RLatLon0.09_PT074H.grib2 2026-05-04 15:09 242K
20260504T12Z_MSC_RDPS_SoilTemp_Sfc_RLatLon0.09_PT074H.grib2 2026-05-04 15:09 284K
20260504T12Z_MSC_RDPS_SoilVolumetricIceContent_Sfc_RLatLon0.09_PT074H.grib2 2026-05-04 15:09 151K
20260504T12Z_MSC_RDPS_SoilVolumetricWaterContent_DBS-0to10cm_RLatLon0.09_PT074H.grib2 2026-05-04 15:09 284K
20260504T12Z_MSC_RDPS_SoilVolumetricWaterContent_DBS-0to1cm_RLatLon0.09_PT074H.grib2 2026-05-04 15:09 346K
20260504T12Z_MSC_RDPS_SpecificHumidity_AGL-120m_RLatLon0.09_PT074H.grib2 2026-05-04 15:09 511K
20260504T12Z_MSC_RDPS_SpecificHumidity_AGL-2m_RLatLon0.09_PT074H.grib2 2026-05-04 15:09 679K
20260504T12Z_MSC_RDPS_SpecificHumidity_AGL-40m_RLatLon0.09_PT074H.grib2 2026-05-04 15:09 516K
20260504T12Z_MSC_RDPS_SpecificHumidity_AGL-80m_RLatLon0.09_PT074H.grib2 2026-05-04 15:09 513K
20260504T12Z_MSC_RDPS_SpecificHumidity_IsbL-0001_RLatLon0.09_PT074H.grib2 2026-05-04 15:09 376K
20260504T12Z_MSC_RDPS_SpecificHumidity_IsbL-0005_RLatLon0.09_PT074H.grib2 2026-05-04 15:09 365K
20260504T12Z_MSC_RDPS_SpecificHumidity_IsbL-0010_RLatLon0.09_PT074H.grib2 2026-05-04 15:09 397K
20260504T12Z_MSC_RDPS_SpecificHumidity_IsbL-0020_RLatLon0.09_PT074H.grib2 2026-05-04 15:09 376K
20260504T12Z_MSC_RDPS_SpecificHumidity_IsbL-0030_RLatLon0.09_PT074H.grib2 2026-05-04 15:09 359K
20260504T12Z_MSC_RDPS_SpecificHumidity_IsbL-0050_RLatLon0.09_PT074H.grib2 2026-05-04 15:09 467K
20260504T12Z_MSC_RDPS_SpecificHumidity_IsbL-0100_RLatLon0.09_PT074H.grib2 2026-05-04 15:09 415K
20260504T12Z_MSC_RDPS_SpecificHumidity_IsbL-0150_RLatLon0.09_PT074H.grib2 2026-05-04 15:09 468K
20260504T12Z_MSC_RDPS_SpecificHumidity_IsbL-0175_RLatLon0.09_PT074H.grib2 2026-05-04 15:09 433K
20260504T12Z_MSC_RDPS_SpecificHumidity_IsbL-0200_RLatLon0.09_PT074H.grib2 2026-05-04 15:09 465K
20260504T12Z_MSC_RDPS_SpecificHumidity_IsbL-0225_RLatLon0.09_PT074H.grib2 2026-05-04 15:09 445K
20260504T12Z_MSC_RDPS_SpecificHumidity_IsbL-0250_RLatLon0.09_PT074H.grib2 2026-05-04 15:09 548K
20260504T12Z_MSC_RDPS_SpecificHumidity_IsbL-0275_RLatLon0.09_PT074H.grib2 2026-05-04 15:09 465K
20260504T12Z_MSC_RDPS_SpecificHumidity_IsbL-0300_RLatLon0.09_PT074H.grib2 2026-05-04 15:09 537K
20260504T12Z_MSC_RDPS_SpecificHumidity_IsbL-0350_RLatLon0.09_PT074H.grib2 2026-05-04 15:09 532K
20260504T12Z_MSC_RDPS_SpecificHumidity_IsbL-0400_RLatLon0.09_PT074H.grib2 2026-05-04 15:09 513K
20260504T12Z_MSC_RDPS_SpecificHumidity_IsbL-0450_RLatLon0.09_PT074H.grib2 2026-05-04 15:09 567K
20260504T12Z_MSC_RDPS_SpecificHumidity_IsbL-0500_RLatLon0.09_PT074H.grib2 2026-05-04 15:09 499K
20260504T12Z_MSC_RDPS_SpecificHumidity_IsbL-0550_RLatLon0.09_PT074H.grib2 2026-05-04 15:09 570K
20260504T12Z_MSC_RDPS_SpecificHumidity_IsbL-0600_RLatLon0.09_PT074H.grib2 2026-05-04 15:09 622K
20260504T12Z_MSC_RDPS_SpecificHumidity_IsbL-0650_RLatLon0.09_PT074H.grib2 2026-05-04 15:09 535K
20260504T12Z_MSC_RDPS_SpecificHumidity_IsbL-0700_RLatLon0.09_PT074H.grib2 2026-05-04 15:09 575K
20260504T12Z_MSC_RDPS_SpecificHumidity_IsbL-0750_RLatLon0.09_PT074H.grib2 2026-05-04 15:09 634K
20260504T12Z_MSC_RDPS_SpecificHumidity_IsbL-0800_RLatLon0.09_PT074H.grib2 2026-05-04 15:09 730K
20260504T12Z_MSC_RDPS_SpecificHumidity_IsbL-0850_RLatLon0.09_PT074H.grib2 2026-05-04 15:09 819K
20260504T12Z_MSC_RDPS_SpecificHumidity_IsbL-0875_RLatLon0.09_PT074H.grib2 2026-05-04 15:09 846K
20260504T12Z_MSC_RDPS_SpecificHumidity_IsbL-0900_RLatLon0.09_PT074H.grib2 2026-05-04 15:09 859K
20260504T12Z_MSC_RDPS_SpecificHumidity_IsbL-0925_RLatLon0.09_PT074H.grib2 2026-05-04 15:09 862K
20260504T12Z_MSC_RDPS_SpecificHumidity_IsbL-0950_RLatLon0.09_PT074H.grib2 2026-05-04 15:09 861K
20260504T12Z_MSC_RDPS_SpecificHumidity_IsbL-0970_RLatLon0.09_PT074H.grib2 2026-05-04 15:09 713K
20260504T12Z_MSC_RDPS_SpecificHumidity_IsbL-0985_RLatLon0.09_PT074H.grib2 2026-05-04 15:09 708K
20260504T12Z_MSC_RDPS_SpecificHumidity_IsbL-1000_RLatLon0.09_PT074H.grib2 2026-05-04 15:09 704K
20260504T12Z_MSC_RDPS_SpecificHumidity_IsbL-1015_RLatLon0.09_PT074H.grib2 2026-05-04 15:09 692K
20260504T12Z_MSC_RDPS_SpecificHumidity_Sfc_RLatLon0.09_PT074H.grib2 2026-05-04 15:09 318K
20260504T12Z_MSC_RDPS_StormRelativeHelicity_EtaL-10000_RLatLon0.09_PT074H.grib2 2026-05-04 15:09 1.1M
20260504T12Z_MSC_RDPS_StormSeverityIndex_EtaL-10000_RLatLon0.09_PT074H.grib2 2026-05-04 15:09 1.1M
20260504T12Z_MSC_RDPS_Thickness_IsbL-0850to0700_RLatLon0.09_PT074H.grib2 2026-05-04 15:09 244K
20260504T12Z_MSC_RDPS_Thickness_IsbL-1000to0500_RLatLon0.09_PT074H.grib2 2026-05-04 15:09 192K
20260504T12Z_MSC_RDPS_Thickness_IsbL-1000to0850_RLatLon0.09_PT074H.grib2 2026-05-04 15:09 261K
20260504T12Z_MSC_RDPS_TotalCloudCover_Sfc_RLatLon0.09_PT074H.grib2 2026-05-04 15:09 675K
20260504T12Z_MSC_RDPS_TotalTotalsIndex_Sfc_RLatLon0.09_PT074H.grib2 2026-05-04 15:09 2.4M
20260504T12Z_MSC_RDPS_UVIndex-ClearSky_Sfc_RLatLon0.09_PT074H.grib2 2026-05-04 15:09 211K
20260504T12Z_MSC_RDPS_UVIndex_Sfc_RLatLon0.09_PT074H.grib2 2026-05-04 15:09 478K
20260504T12Z_MSC_RDPS_UpwardLongwaveRadiationFlux_NTAtm_RLatLon0.09_PT074H.grib2 2026-05-04 15:09 490K
20260504T12Z_MSC_RDPS_UpwardShortwaveRadiationFlux_NTAtm_RLatLon0.09_PT074H.grib2 2026-05-04 15:09 428K
20260504T12Z_MSC_RDPS_VerticalVelocity_IsbL-0250_RLatLon0.09_PT074H.grib2 2026-05-04 15:09 547K
20260504T12Z_MSC_RDPS_VerticalVelocity_IsbL-0500_RLatLon0.09_PT074H.grib2 2026-05-04 15:09 571K
20260504T12Z_MSC_RDPS_VerticalVelocity_IsbL-0700_RLatLon0.09_PT074H.grib2 2026-05-04 15:09 582K
20260504T12Z_MSC_RDPS_VerticalVelocity_IsbL-0850_RLatLon0.09_PT074H.grib2 2026-05-04 15:09 829K
20260504T12Z_MSC_RDPS_VerticalWindShear_EtaL-6500_RLatLon0.09_PT074H.grib2 2026-05-04 15:09 1.2M
20260504T12Z_MSC_RDPS_WindChill_Sfc_RLatLon0.09_PT074H.grib2 2026-05-04 15:09 1.2M
20260504T12Z_MSC_RDPS_WindDir_AGL-10m_RLatLon0.09_PT074H.grib2 2026-05-04 15:09 1.0M
20260504T12Z_MSC_RDPS_WindDir_AGL-120m_RLatLon0.09_PT074H.grib2 2026-05-04 15:09 632K
20260504T12Z_MSC_RDPS_WindDir_AGL-40m_RLatLon0.09_PT074H.grib2 2026-05-04 15:09 658K
20260504T12Z_MSC_RDPS_WindDir_AGL-80m_RLatLon0.09_PT074H.grib2 2026-05-04 15:09 642K
20260504T12Z_MSC_RDPS_WindDir_IsbL-0001_RLatLon0.09_PT074H.grib2 2026-05-04 15:09 303K
20260504T12Z_MSC_RDPS_WindDir_IsbL-0005_RLatLon0.09_PT074H.grib2 2026-05-04 15:09 384K
20260504T12Z_MSC_RDPS_WindDir_IsbL-0010_RLatLon0.09_PT074H.grib2 2026-05-04 15:09 378K
20260504T12Z_MSC_RDPS_WindDir_IsbL-0020_RLatLon0.09_PT074H.grib2 2026-05-04 15:09 415K
20260504T12Z_MSC_RDPS_WindDir_IsbL-0030_RLatLon0.09_PT074H.grib2 2026-05-04 15:09 414K
20260504T12Z_MSC_RDPS_WindDir_IsbL-0050_RLatLon0.09_PT074H.grib2 2026-05-04 15:09 439K
20260504T12Z_MSC_RDPS_WindDir_IsbL-0100_RLatLon0.09_PT074H.grib2 2026-05-04 15:09 418K
20260504T12Z_MSC_RDPS_WindDir_IsbL-0150_RLatLon0.09_PT074H.grib2 2026-05-04 15:09 415K
20260504T12Z_MSC_RDPS_WindDir_IsbL-0175_RLatLon0.09_PT074H.grib2 2026-05-04 15:09 439K
20260504T12Z_MSC_RDPS_WindDir_IsbL-0200_RLatLon0.09_PT074H.grib2 2026-05-04 15:09 457K
20260504T12Z_MSC_RDPS_WindDir_IsbL-0225_RLatLon0.09_PT074H.grib2 2026-05-04 15:09 459K
20260504T12Z_MSC_RDPS_WindDir_IsbL-0250_RLatLon0.09_PT074H.grib2 2026-05-04 15:09 454K
20260504T12Z_MSC_RDPS_WindDir_IsbL-0275_RLatLon0.09_PT074H.grib2 2026-05-04 15:09 474K
20260504T12Z_MSC_RDPS_WindDir_IsbL-0300_RLatLon0.09_PT074H.grib2 2026-05-04 15:09 470K
20260504T12Z_MSC_RDPS_WindDir_IsbL-0350_RLatLon0.09_PT074H.grib2 2026-05-04 15:09 497K
20260504T12Z_MSC_RDPS_WindDir_IsbL-0400_RLatLon0.09_PT074H.grib2 2026-05-04 15:09 506K
20260504T12Z_MSC_RDPS_WindDir_IsbL-0450_RLatLon0.09_PT074H.grib2 2026-05-04 15:09 526K
20260504T12Z_MSC_RDPS_WindDir_IsbL-0500_RLatLon0.09_PT074H.grib2 2026-05-04 15:09 541K
20260504T12Z_MSC_RDPS_WindDir_IsbL-0550_RLatLon0.09_PT074H.grib2 2026-05-04 15:09 555K
20260504T12Z_MSC_RDPS_WindDir_IsbL-0600_RLatLon0.09_PT074H.grib2 2026-05-04 15:09 583K
20260504T12Z_MSC_RDPS_WindDir_IsbL-0650_RLatLon0.09_PT074H.grib2 2026-05-04 15:09 628K
20260504T12Z_MSC_RDPS_WindDir_IsbL-0700_RLatLon0.09_PT074H.grib2 2026-05-04 15:09 671K
20260504T12Z_MSC_RDPS_WindDir_IsbL-0750_RLatLon0.09_PT074H.grib2 2026-05-04 15:09 718K
20260504T12Z_MSC_RDPS_WindDir_IsbL-0800_RLatLon0.09_PT074H.grib2 2026-05-04 15:09 792K
20260504T12Z_MSC_RDPS_WindDir_IsbL-0850_RLatLon0.09_PT074H.grib2 2026-05-04 15:09 870K
20260504T12Z_MSC_RDPS_WindDir_IsbL-0875_RLatLon0.09_PT074H.grib2 2026-05-04 15:09 902K
20260504T12Z_MSC_RDPS_WindDir_IsbL-0900_RLatLon0.09_PT074H.grib2 2026-05-04 15:09 923K
20260504T12Z_MSC_RDPS_WindDir_IsbL-0925_RLatLon0.09_PT074H.grib2 2026-05-04 15:09 936K
20260504T12Z_MSC_RDPS_WindDir_IsbL-0950_RLatLon0.09_PT074H.grib2 2026-05-04 15:09 938K
20260504T12Z_MSC_RDPS_WindDir_IsbL-0970_RLatLon0.09_PT074H.grib2 2026-05-04 15:09 942K
20260504T12Z_MSC_RDPS_WindDir_IsbL-0985_RLatLon0.09_PT074H.grib2 2026-05-04 15:09 953K
20260504T12Z_MSC_RDPS_WindDir_IsbL-1000_RLatLon0.09_PT074H.grib2 2026-05-04 15:09 967K
20260504T12Z_MSC_RDPS_WindDir_IsbL-1015_RLatLon0.09_PT074H.grib2 2026-05-04 15:09 1.0M
20260504T12Z_MSC_RDPS_WindGust-Max_AGL-10m_RLatLon0.09_PT074H.grib2 2026-05-04 15:09 1.0M
20260504T12Z_MSC_RDPS_WindGust-Min_AGL-10m_RLatLon0.09_PT074H.grib2 2026-05-04 15:09 1.0M
20260504T12Z_MSC_RDPS_WindGust_AGL-10m_RLatLon0.09_PT074H.grib2 2026-05-04 15:09 1.0M
20260504T12Z_MSC_RDPS_WindSpeed_AGL-10m_RLatLon0.09_PT074H.grib2 2026-05-04 15:09 844K
20260504T12Z_MSC_RDPS_WindSpeed_AGL-120m_RLatLon0.09_PT074H.grib2 2026-05-04 15:09 545K
20260504T12Z_MSC_RDPS_WindSpeed_AGL-40m_RLatLon0.09_PT074H.grib2 2026-05-04 15:09 674K
20260504T12Z_MSC_RDPS_WindSpeed_AGL-80m_RLatLon0.09_PT074H.grib2 2026-05-04 15:09 674K
20260504T12Z_MSC_RDPS_WindSpeed_IsbL-0001_RLatLon0.09_PT074H.grib2 2026-05-04 15:09 337K
20260504T12Z_MSC_RDPS_WindSpeed_IsbL-0005_RLatLon0.09_PT074H.grib2 2026-05-04 15:09 294K
20260504T12Z_MSC_RDPS_WindSpeed_IsbL-0010_RLatLon0.09_PT074H.grib2 2026-05-04 15:09 398K
20260504T12Z_MSC_RDPS_WindSpeed_IsbL-0020_RLatLon0.09_PT074H.grib2 2026-05-04 15:09 424K
20260504T12Z_MSC_RDPS_WindSpeed_IsbL-0030_RLatLon0.09_PT074H.grib2 2026-05-04 15:09 321K
20260504T12Z_MSC_RDPS_WindSpeed_IsbL-0050_RLatLon0.09_PT074H.grib2 2026-05-04 15:09 346K
20260504T12Z_MSC_RDPS_WindSpeed_IsbL-0100_RLatLon0.09_PT074H.grib2 2026-05-04 15:09 431K
20260504T12Z_MSC_RDPS_WindSpeed_IsbL-0150_RLatLon0.09_PT074H.grib2 2026-05-04 15:09 394K
20260504T12Z_MSC_RDPS_WindSpeed_IsbL-0175_RLatLon0.09_PT074H.grib2 2026-05-04 15:09 419K
20260504T12Z_MSC_RDPS_WindSpeed_IsbL-0200_RLatLon0.09_PT074H.grib2 2026-05-04 15:09 435K
20260504T12Z_MSC_RDPS_WindSpeed_IsbL-0225_RLatLon0.09_PT074H.grib2 2026-05-04 15:09 439K
20260504T12Z_MSC_RDPS_WindSpeed_IsbL-0250_RLatLon0.09_PT074H.grib2 2026-05-04 15:09 439K
20260504T12Z_MSC_RDPS_WindSpeed_IsbL-0275_RLatLon0.09_PT074H.grib2 2026-05-04 15:09 456K
20260504T12Z_MSC_RDPS_WindSpeed_IsbL-0300_RLatLon0.09_PT074H.grib2 2026-05-04 15:09 455K
20260504T12Z_MSC_RDPS_WindSpeed_IsbL-0350_RLatLon0.09_PT074H.grib2 2026-05-04 15:09 470K
20260504T12Z_MSC_RDPS_WindSpeed_IsbL-0400_RLatLon0.09_PT074H.grib2 2026-05-04 15:09 454K
20260504T12Z_MSC_RDPS_WindSpeed_IsbL-0450_RLatLon0.09_PT074H.grib2 2026-05-04 15:09 454K
20260504T12Z_MSC_RDPS_WindSpeed_IsbL-0500_RLatLon0.09_PT074H.grib2 2026-05-04 15:09 572K
20260504T12Z_MSC_RDPS_WindSpeed_IsbL-0550_RLatLon0.09_PT074H.grib2 2026-05-04 15:09 571K
20260504T12Z_MSC_RDPS_WindSpeed_IsbL-0600_RLatLon0.09_PT074H.grib2 2026-05-04 15:09 580K
20260504T12Z_MSC_RDPS_WindSpeed_IsbL-0650_RLatLon0.09_PT074H.grib2 2026-05-04 15:09 644K
20260504T12Z_MSC_RDPS_WindSpeed_IsbL-0700_RLatLon0.09_PT074H.grib2 2026-05-04 15:09 668K
20260504T12Z_MSC_RDPS_WindSpeed_IsbL-0750_RLatLon0.09_PT074H.grib2 2026-05-04 15:09 700K
20260504T12Z_MSC_RDPS_WindSpeed_IsbL-0800_RLatLon0.09_PT074H.grib2 2026-05-04 15:09 753K
20260504T12Z_MSC_RDPS_WindSpeed_IsbL-0850_RLatLon0.09_PT074H.grib2 2026-05-04 15:09 820K
20260504T12Z_MSC_RDPS_WindSpeed_IsbL-0875_RLatLon0.09_PT074H.grib2 2026-05-04 15:09 839K
20260504T12Z_MSC_RDPS_WindSpeed_IsbL-0900_RLatLon0.09_PT074H.grib2 2026-05-04 15:09 855K
20260504T12Z_MSC_RDPS_WindSpeed_IsbL-0925_RLatLon0.09_PT074H.grib2 2026-05-04 15:09 866K
20260504T12Z_MSC_RDPS_WindSpeed_IsbL-0950_RLatLon0.09_PT074H.grib2 2026-05-04 15:09 866K
20260504T12Z_MSC_RDPS_WindSpeed_IsbL-0970_RLatLon0.09_PT074H.grib2 2026-05-04 15:09 862K
20260504T12Z_MSC_RDPS_WindSpeed_IsbL-0985_RLatLon0.09_PT074H.grib2 2026-05-04 15:09 857K
20260504T12Z_MSC_RDPS_WindSpeed_IsbL-1000_RLatLon0.09_PT074H.grib2 2026-05-04 15:09 853K
20260504T12Z_MSC_RDPS_WindSpeed_IsbL-1015_RLatLon0.09_PT074H.grib2 2026-05-04 15:09 844K
20260504T12Z_MSC_RDPS_WindU_AGL-10m_RLatLon0.09_PT074H.grib2 2026-05-04 15:09 436K
20260504T12Z_MSC_RDPS_WindU_AGL-120m_RLatLon0.09_PT074H.grib2 2026-05-04 15:09 541K
20260504T12Z_MSC_RDPS_WindU_AGL-40m_RLatLon0.09_PT074H.grib2 2026-05-04 15:09 542K
20260504T12Z_MSC_RDPS_WindU_AGL-80m_RLatLon0.09_PT074H.grib2 2026-05-04 15:09 542K
20260504T12Z_MSC_RDPS_WindU_IsbL-0001_RLatLon0.09_PT074H.grib2 2026-05-04 15:09 247K
20260504T12Z_MSC_RDPS_WindU_IsbL-0005_RLatLon0.09_PT074H.grib2 2026-05-04 15:09 285K
20260504T12Z_MSC_RDPS_WindU_IsbL-0010_RLatLon0.09_PT074H.grib2 2026-05-04 15:09 299K
20260504T12Z_MSC_RDPS_WindU_IsbL-0020_RLatLon0.09_PT074H.grib2 2026-05-04 15:09 321K
20260504T12Z_MSC_RDPS_WindU_IsbL-0030_RLatLon0.09_PT074H.grib2 2026-05-04 15:09 354K
20260504T12Z_MSC_RDPS_WindU_IsbL-0050_RLatLon0.09_PT074H.grib2 2026-05-04 15:09 377K
20260504T12Z_MSC_RDPS_WindU_IsbL-0100_RLatLon0.09_PT074H.grib2 2026-05-04 15:09 331K
20260504T12Z_MSC_RDPS_WindU_IsbL-0150_RLatLon0.09_PT074H.grib2 2026-05-04 15:09 388K
20260504T12Z_MSC_RDPS_WindU_IsbL-0175_RLatLon0.09_PT074H.grib2 2026-05-04 15:09 413K
20260504T12Z_MSC_RDPS_WindU_IsbL-0200_RLatLon0.09_PT074H.grib2 2026-05-04 15:09 430K
20260504T12Z_MSC_RDPS_WindU_IsbL-0225_RLatLon0.09_PT074H.grib2 2026-05-04 15:09 335K
20260504T12Z_MSC_RDPS_WindU_IsbL-0250_RLatLon0.09_PT074H.grib2 2026-05-04 15:09 333K
20260504T12Z_MSC_RDPS_WindU_IsbL-0275_RLatLon0.09_PT074H.grib2 2026-05-04 15:09 348K
20260504T12Z_MSC_RDPS_WindU_IsbL-0300_RLatLon0.09_PT074H.grib2 2026-05-04 15:09 345K
20260504T12Z_MSC_RDPS_WindU_IsbL-0350_RLatLon0.09_PT074H.grib2 2026-05-04 15:09 357K
20260504T12Z_MSC_RDPS_WindU_IsbL-0400_RLatLon0.09_PT074H.grib2 2026-05-04 15:09 358K
20260504T12Z_MSC_RDPS_WindU_IsbL-0450_RLatLon0.09_PT074H.grib2 2026-05-04 15:09 460K
20260504T12Z_MSC_RDPS_WindU_IsbL-0500_RLatLon0.09_PT074H.grib2 2026-05-04 15:09 460K
20260504T12Z_MSC_RDPS_WindU_IsbL-0550_RLatLon0.09_PT074H.grib2 2026-05-04 15:09 460K
20260504T12Z_MSC_RDPS_WindU_IsbL-0600_RLatLon0.09_PT074H.grib2 2026-05-04 15:09 468K
20260504T12Z_MSC_RDPS_WindU_IsbL-0650_RLatLon0.09_PT074H.grib2 2026-05-04 15:09 486K
20260504T12Z_MSC_RDPS_WindU_IsbL-0700_RLatLon0.09_PT074H.grib2 2026-05-04 15:09 507K
20260504T12Z_MSC_RDPS_WindU_IsbL-0750_RLatLon0.09_PT074H.grib2 2026-05-04 15:09 534K
20260504T12Z_MSC_RDPS_WindU_IsbL-0800_RLatLon0.09_PT074H.grib2 2026-05-04 15:09 567K
20260504T12Z_MSC_RDPS_WindU_IsbL-0850_RLatLon0.09_PT074H.grib2 2026-05-04 15:09 626K
20260504T12Z_MSC_RDPS_WindU_IsbL-0875_RLatLon0.09_PT074H.grib2 2026-05-04 15:09 647K
20260504T12Z_MSC_RDPS_WindU_IsbL-0900_RLatLon0.09_PT074H.grib2 2026-05-04 15:09 659K
20260504T12Z_MSC_RDPS_WindU_IsbL-0925_RLatLon0.09_PT074H.grib2 2026-05-04 15:09 666K
20260504T12Z_MSC_RDPS_WindU_IsbL-0950_RLatLon0.09_PT074H.grib2 2026-05-04 15:09 663K
20260504T12Z_MSC_RDPS_WindU_IsbL-0970_RLatLon0.09_PT074H.grib2 2026-05-04 15:09 799K
20260504T12Z_MSC_RDPS_WindU_IsbL-0985_RLatLon0.09_PT074H.grib2 2026-05-04 15:09 795K
20260504T12Z_MSC_RDPS_WindU_IsbL-1000_RLatLon0.09_PT074H.grib2 2026-05-04 15:09 840K
20260504T12Z_MSC_RDPS_WindU_IsbL-1015_RLatLon0.09_PT074H.grib2 2026-05-04 15:09 834K
20260504T12Z_MSC_RDPS_WindV_AGL-10m_RLatLon0.09_PT074H.grib2 2026-05-04 15:09 432K
20260504T12Z_MSC_RDPS_WindV_AGL-120m_RLatLon0.09_PT074H.grib2 2026-05-04 15:09 538K
20260504T12Z_MSC_RDPS_WindV_AGL-40m_RLatLon0.09_PT074H.grib2 2026-05-04 15:09 537K
20260504T12Z_MSC_RDPS_WindV_AGL-80m_RLatLon0.09_PT074H.grib2 2026-05-04 15:09 538K
20260504T12Z_MSC_RDPS_WindV_IsbL-0001_RLatLon0.09_PT074H.grib2 2026-05-04 15:09 249K
20260504T12Z_MSC_RDPS_WindV_IsbL-0005_RLatLon0.09_PT074H.grib2 2026-05-04 15:09 287K
20260504T12Z_MSC_RDPS_WindV_IsbL-0010_RLatLon0.09_PT074H.grib2 2026-05-04 15:09 301K
20260504T12Z_MSC_RDPS_WindV_IsbL-0020_RLatLon0.09_PT074H.grib2 2026-05-04 15:09 322K
20260504T12Z_MSC_RDPS_WindV_IsbL-0030_RLatLon0.09_PT074H.grib2 2026-05-04 15:09 316K
20260504T12Z_MSC_RDPS_WindV_IsbL-0050_RLatLon0.09_PT074H.grib2 2026-05-04 15:09 341K
20260504T12Z_MSC_RDPS_WindV_IsbL-0100_RLatLon0.09_PT074H.grib2 2026-05-04 15:09 421K
20260504T12Z_MSC_RDPS_WindV_IsbL-0150_RLatLon0.09_PT074H.grib2 2026-05-04 15:09 386K
20260504T12Z_MSC_RDPS_WindV_IsbL-0175_RLatLon0.09_PT074H.grib2 2026-05-04 15:09 410K
20260504T12Z_MSC_RDPS_WindV_IsbL-0200_RLatLon0.09_PT074H.grib2 2026-05-04 15:09 428K
20260504T12Z_MSC_RDPS_WindV_IsbL-0225_RLatLon0.09_PT074H.grib2 2026-05-04 15:09 334K
20260504T12Z_MSC_RDPS_WindV_IsbL-0250_RLatLon0.09_PT074H.grib2 2026-05-04 15:09 333K
20260504T12Z_MSC_RDPS_WindV_IsbL-0275_RLatLon0.09_PT074H.grib2 2026-05-04 15:09 346K
20260504T12Z_MSC_RDPS_WindV_IsbL-0300_RLatLon0.09_PT074H.grib2 2026-05-04 15:09 343K
20260504T12Z_MSC_RDPS_WindV_IsbL-0350_RLatLon0.09_PT074H.grib2 2026-05-04 15:09 354K
20260504T12Z_MSC_RDPS_WindV_IsbL-0400_RLatLon0.09_PT074H.grib2 2026-05-04 15:09 457K
20260504T12Z_MSC_RDPS_WindV_IsbL-0450_RLatLon0.09_PT074H.grib2 2026-05-04 15:09 457K
20260504T12Z_MSC_RDPS_WindV_IsbL-0500_RLatLon0.09_PT074H.grib2 2026-05-04 15:09 457K
20260504T12Z_MSC_RDPS_WindV_IsbL-0550_RLatLon0.09_PT074H.grib2 2026-05-04 15:09 457K
20260504T12Z_MSC_RDPS_WindV_IsbL-0600_RLatLon0.09_PT074H.grib2 2026-05-04 15:09 465K
20260504T12Z_MSC_RDPS_WindV_IsbL-0650_RLatLon0.09_PT074H.grib2 2026-05-04 15:09 482K
20260504T12Z_MSC_RDPS_WindV_IsbL-0700_RLatLon0.09_PT074H.grib2 2026-05-04 15:09 487K
20260504T12Z_MSC_RDPS_WindV_IsbL-0750_RLatLon0.09_PT074H.grib2 2026-05-04 15:09 515K
20260504T12Z_MSC_RDPS_WindV_IsbL-0800_RLatLon0.09_PT074H.grib2 2026-05-04 15:09 562K
20260504T12Z_MSC_RDPS_WindV_IsbL-0850_RLatLon0.09_PT074H.grib2 2026-05-04 15:09 622K
20260504T12Z_MSC_RDPS_WindV_IsbL-0875_RLatLon0.09_PT074H.grib2 2026-05-04 15:09 643K
20260504T12Z_MSC_RDPS_WindV_IsbL-0900_RLatLon0.09_PT074H.grib2 2026-05-04 15:09 795K
20260504T12Z_MSC_RDPS_WindV_IsbL-0925_RLatLon0.09_PT074H.grib2 2026-05-04 15:09 803K
20260504T12Z_MSC_RDPS_WindV_IsbL-0950_RLatLon0.09_PT074H.grib2 2026-05-04 15:09 801K
20260504T12Z_MSC_RDPS_WindV_IsbL-0970_RLatLon0.09_PT074H.grib2 2026-05-04 15:09 796K
20260504T12Z_MSC_RDPS_WindV_IsbL-0985_RLatLon0.09_PT074H.grib2 2026-05-04 15:09 792K
20260504T12Z_MSC_RDPS_WindV_IsbL-1000_RLatLon0.09_PT074H.grib2 2026-05-04 15:09 834K
20260504T12Z_MSC_RDPS_WindV_IsbL-1015_RLatLon0.09_PT074H.grib2 2026-05-04 15:09 827K